Zurück zum Katalog

STARLINK-32029

AktivKommunikationVLEO
NORAD 60145·PAYLOAD·🇺🇸 United States

Gestartet Jun 27, 2024 von Cape Canaveral Space Force Station

Loading…

Nächste Überflüge (nächste 24 Stunden)

TLE

AktuellSource: CelesTrak SupGP

Epoche: Sep 15, 2026, 02:02 UTC

1 60145C 24120L   26258.08520833  .00026381  00000+0  77895-3 0  2583
2 60145  53.1578 156.8467 0001177  81.5832 177.7123 15.34396960    12

Verfolge STARLINK-32029 in Echtzeit mit AllMySat

Download on the App Store